AirNav   TITAN Aviation Fuels
 
 784 users online  

FD72 Kings Port Airport
Lake Placid, Florida, USA

GOING TO LAKE PLACID?


FAA INFORMATION EFFECTIVE 01 DECEMBER 2022

Location

FAA Identifier: FD72
Lat/Long: 27-10-58.1760N 081-23-26.2640W
27-10.969600N 081-23.437733W
27.1828267,-81.3906289
(estimated)
Elevation: 148 ft. / 45 m (estimated)
Variation: 02W (1985)
From city: 7 miles S of LAKE PLACID, FL
Time zone: UTC -5 (UTC -4 during Daylight Saving Time)
Zip code: 33852

Airport Operations

Airport use: Private use. Permission required prior to landing
Activation date: 07/1986
Control tower: no
ARTCC: MIAMI CENTER
FSS: SAINT PETERSBURG FLIGHT SERVICE STATION
Attendance: CONTINUOUS
Wind indicator: yes
Segmented circle: no

Airport Communications

WX AWOS-3 at SEF (17 nm N): 119.475 (863-655-6424)

Nearby radio navigation aids

VOR radial/distance  VOR name  Freq  Var
LBVr359/21.3LA BELLE VORTAC110.4001E
PGDr070/(35.8)PUNTA GORDA VOR110.2006W

Airport Services

Runway Information

Runway 18/36

Dimensions: 2500 x 75 ft. / 762 x 23 m
Surface: turf, in good condition
RUNWAY 18  RUNWAY 36
Traffic pattern: leftleft
Obstructions: 4 ft. fence, 20 ft. from runway4 ft. fence, 20 ft. from runway

Airport Ownership and Management from official FAA records

Ownership: Privately-owned
Owner: RICHARD AND DALE DUTTON, ET AL
228 PARK LAND DRIVE
LAKE PLACID, FL 33852
Manager: EDWARD AND MARY ANN FLEAGLE
212 PARK LAND DRIVE
LAKE PLACID, FL 33852
Phone 910-358-7235

Airport Operational Statistics

Aircraft based on the field: 6
Single engine airplanes: 6
    

Additional Remarks

FOR CD CTC MIAMI ARTCC AT 305-716-1731.

Instrument Procedures

There are no published instrument procedures at FD72.

Some nearby airports with instrument procedures:

KSEF - Sebring Regional Airport (17 nm N)
X06 - Arcadia Municipal Airport (24 nm W)
KAVO - Avon Park Executive Airport (26 nm N)
X14 - La Belle Municipal Airport (27 nm S)
KOBE - Okeechobee County Airport (29 nm E)
 
Loc | Ops | Rwys | IFR | FBO | Links
Com | Nav | Svcs | Stats | Notes


 
Area around FD72 (Kings Port Airport)
 
Road maps at: MapQuest Bing Google
 
Aerial photo
No photo
 
Sectional chart

 
Airport distance calculator
Flying to Kings Port Airport? Find the distance to fly.

From to FD72

Sunrise and sunset
Times for 06-Dec-2022
 Local
(UTC-5)
 Zulu
(UTC)
Morning civil twilight06:3711:37
Sunrise07:0312:03
Sunset17:3122:31
Evening civil twilight17:5622:56

Current date and time
Zulu (UTC)  06-Dec-2022 07:06:14
Local (UTC-5)  06-Dec-2022 02:06:14
 
METAR
KSEF 
17nm N 
060635Z AUTO 35004KT 10SM CLR A3013 RMK AO2
KAGR 
28nm N 
060655Z AUTO 00000KT 9SM CLR 17/16 A3012 RMK AO2 SLP201 T01660159 $
KOBE 
29nm E 
060655Z AUTO 00000KT 9SM CLR 16/16 A3011 RMK AO2
K2IS 
32nm SE 
060655Z AUTO 34003KT 5SM BR CLR 17/17 A3012 RMK AO2 T01720168
TAF
KPGD 
36nm SW 
060522Z 0606/0706 VRB03KT P6SM FEW040 SCT250 FM061000 VRB02KT 6SM BR FEW015 FM061500 08006KT P6SM FEW250 FM062100 35006KT P6SM SCT050 SCT250 FM070000 VRB03KT P6SM FEW050 SCT250
KRSW 
44nm SW 
060522Z 0606/0706 VRB03KT P6SM FEW040 SCT250 FM061500 08005KT P6SM FEW250 FM062100 02006KT P6SM SCT050 SCT250 FM070100 VRB03KT P6SM FEW050 SCT250
KFMY 
44nm SW 
060522Z 0606/0706 VRB03KT P6SM FEW040 SCT250 FM061500 07006KT P6SM FEW250 FM062100 01007KT P6SM SCT050 SCT250 FM070100 VRB03KT P6SM FEW050 SCT250
NOTAMs
Click for the latest NOTAMs
NOTAMs are issued by the DoD/FAA and will open in a separate window not controlled by AirNav.

 

 
 

Would you like to see your business listed on this page?

 If your business provides an interesting product or service to pilots, flight crews, aircraft, or users of the Kings Port Airport, you should consider listing it here.  To start the listing process, click on the button below
 
Add a business
 

Other Pages about Kings Port Airport

Update a link
 
Copyright © AirNav, LLC. All rights reserved. Privacy Policy  Contact